Theta_e
289 288 288 288 288 288 288 288 288 288 287 287 287 287 286 286 286 286 286 286 286 286 286 285 285 285 285 285 285 285 285 285 284 284 284 284 283 283 283 283 283 283
288 288 288 288 288 288 288 288 288 288 287 287 287 287 286 286 286 286 286 286 286 286 285 285 285 285 285 285 285 285 285 284 284 284 284 284 283 283 283 283 283 282
289 288 288 288 288 288 288 287 287 287 287 287 287 287 286 286 286 286 286 286 286 286 285 285 285 285 285 285 285 284 284 284 284 283 283 283 283 283 283 282 282 282
289 288 288 289 289 288 288 287 287 287 287 287 286 286 286 286 286 286 287 287 286 286 286 285 285 285 284 284 284 284 284 284 284 283 283 283 283 283 283 282 282 282
289 289 289 289 289 288 287 287 287 287 287 286 286 286 286 286 287 287 287 287 286 286 285 285 285 284 284 284 284 284 284 284 283 283 283 283 283 283 283 282 282 282
289 289 289 289 288 288 287 287 287 287 287 287 286 286 286 287 287 287 287 287 286 286 285 285 285 284 284 284 283 284 283 283 283 283 283 283 283 282 282 282 282 282
289 289 289 288 288 287 287 287 287 287 287 287 287 286 286 287 287 287 287 286 286 286 285 285 284 284 284 283 283 283 283 283 283 283 283 282 282 282 282 282 282 281
289 288 288 288 287 287 287 287 287 287 287 287 287 286 287 287 288 287 287 286 286 286 285 284 284 284 284 283 283 283 283 283 283 282 282 282 282 282 282 281 281 281
288 288 287 287 287 287 287 287 287 287 287 287 287 287 287 287 287 287 287 286 286 285 285 284 284 283 283 283 283 283 283 282 282 282 282 282 282 281 281 281 281 281
287 287 287 287 287 287 287 287 287 287 287 287 287 287 287 287 287 287 286 286 285 285 284 284 283 283 283 283 282 282 282 282 282 282 282 281 281 281 281 281 280 280
287 287 287 287 287 287 287 287 287 287 286 287 287 287 287 287 287 286 286 286 285 284 284 283 283 283 283 282 282 282 282 282 281 281 281 281 281 280 280 280 280 280
287 287 287 287 287 287 287 287 287 287 287 287 287 287 287 287 287 286 286 285 285 284 283 283 283 282 282 282 282 282 282 281 281 281 281 281 280 280 280 280 280 279
287 287 287 287 287 287 287 287 287 287 287 287 287 287 287 287 286 286 286 285 284 284 284 283 282 282 282 282 282 281 281 281 281 281 280 280 280 280 280 280 279 279
287 287 287 287 287 287 287 287 287 287 287 287 287 287 287 286 286 286 285 285 284 284 283 283 282 282 282 282 281 281 280 280 280 280 280 280 280 279 279 279 279 279
287 287 287 287 287 287 287 287 287 287 287 287 287 286 286 286 286 285 285 284 284 284 283 283 283 283 282 281 281 280 280 280 280 280 280 280 279 279 279 279 279 278
287 287 287 287 287 287 287 287 287 287 287 287 287 286 286 286 286 285 285 285 284 284 283 283 283 283 282 281 280 280 280 280 280 279 279 279 279 279 279 279 278 278
286 287 287 287 287 287 287 287 286 286 287 287 286 286 286 286 286 286 285 285 285 284 283 283 283 282 282 280 280 280 280 280 279 279 279 279 279 279 279 278 278 278
286 286 286 286 286 287 287 286 286 286 287 286 286 286 286 286 286 286 286 285 285 284 283 283 283 282 281 280 279 279 279 279 279 279 279 279 279 279 279 278 278 278
286 286 285 285 286 286 287 286 286 286 286 286 286 286 286 286 286 286 286 285 285 284 284 284 283 282 281 280 279 279 279 279 279 279 279 279 279 279 278 278 278 278
285 285 285 285 285 286 286 286 286 286 286 286 286 286 286 286 286 286 286 286 285 285 284 284 283 282 281 280 279 278 278 278 279 279 279 279 279 278 278 278 277 277
285 285 285 284 284 284 285 286 286 286 286 286 286 286 286 286 286 286 286 285 285 285 284 284 283 282 281 279 279 278 278 278 279 279 279 279 278 278 277 277 277 276
285 285 284 284 284 284 284 285 286 286 286 286 286 286 286 286 286 286 286 285 285 284 284 284 284 282 281 279 279 278 278 278 279 279 279 278 278 277 277 276 276 276
285 285 284 284 284 283 284 285 285 286 286 286 286 286 285 286 286 286 286 285 285 284 284 284 284 282 281 280 279 278 278 278 279 279 278 278 277 277 276 276 276 275
285 285 285 284 284 284 284 284 285 286 286 286 286 286 286 286 286 286 285 285 285 284 284 284 284 282 281 280 279 278 277 278 278 278 277 277 276 276 276 276 276 275
286 285 285 284 284 284 284 285 285 285 286 286 286 286 286 286 286 285 285 285 285 284 284 284 284 282 281 280 280 278 277 278 278 277 277 277 276 276 276 275 275 275
286 285 285 285 284 284 285 285 284 284 285 285 285 285 285 285 285 285 285 285 285 284 284 284 284 283 281 280 280 278 277 277 277 277 277 277 276 276 275 275 274 275
Wind_Speed
35 35 34 33 32 31 30 29 28 27 25 24 23 22 21 20 18 17 16 16 15 15 14 13 12 11 10 9 9 8 8 8 9 9 8 9 9 9 9 9 9 9
34 33 33 32 32 30 29 28 27 26 25 24 23 22 21 20 18 16 15 15 14 13 12 11 10 9 8 7 6 6 6 6 7 7 7 7 8 8 8 8 7 7
34 33 33 32 31 30 29 27 26 25 25 23 22 21 20 19 17 16 14 13 12 11 10 8 7 7 5 5 5 5 5 5 5 6 5 5 6 6 6 6 5 5
34 34 33 32 31 30 29 28 27 25 24 23 22 21 19 18 16 15 13 12 10 9 8 7 6 5 4 4 4 4 5 5 5 4 4 4 4 4 4 4 4 4
35 34 33 31 31 30 30 29 27 26 24 23 22 20 19 17 15 13 12 10 9 7 7 6 5 5 5 4 4 4 4 4 4 4 3 2 2 2 2 2 2 3
35 34 33 32 31 31 30 29 27 26 24 23 22 20 18 16 14 12 11 10 9 8 7 7 6 6 5 5 4 4 4 4 3 3 2 2 1 1 1 1 2 2
35 34 33 32 32 31 30 28 27 26 24 23 22 20 18 16 13 12 11 10 9 8 8 8 7 7 6 6 5 5 4 4 3 3 2 2 2 1 1 1 2 2
35 35 34 33 32 31 30 29 27 26 24 23 21 20 17 15 13 12 11 10 10 9 9 9 8 7 7 6 6 5 4 3 3 3 3 2 2 3 3 3 2 2
36 35 35 34 33 32 30 29 27 26 24 22 21 19 17 14 13 12 12 11 11 10 10 10 9 8 7 6 5 4 3 3 3 3 3 3 3 3 3 3 3 3
37 36 36 34 34 33 31 29 27 26 24 22 20 19 17 15 14 13 12 12 11 11 11 10 9 8 7 6 5 4 3 3 4 4 4 3 3 3 4 4 4 5
38 38 37 36 35 33 31 29 28 26 24 22 20 19 17 16 15 14 13 12 12 12 11 10 9 7 6 5 5 4 4 5 5 4 4 4 4 4 4 5 6 6
40 39 38 37 35 33 31 30 28 26 25 23 21 19 18 17 16 15 14 14 13 13 11 10 8 7 6 5 5 5 5 5 5 4 4 4 5 6 6 7 7 7
41 40 39 38 36 34 32 31 29 26 25 23 21 20 19 18 17 16 15 14 14 13 11 9 8 7 6 6 6 7 6 6 6 5 5 6 6 7 7 8 8 8
42 40 39 37 36 34 33 31 29 27 25 24 22 21 19 18 17 17 16 15 14 12 11 9 8 7 7 7 8 8 7 7 7 6 7 7 7 8 8 9 9 9
41 40 39 38 36 35 34 32 30 28 26 25 23 22 20 19 18 17 16 16 14 12 11 10 9 8 8 8 9 9 8 8 8 8 8 8 8 8 9 9 9 9
41 40 39 38 38 37 35 33 31 29 28 27 25 23 22 21 20 19 18 16 15 14 13 11 10 9 8 9 10 9 9 9 9 9 9 9 10 9 10 10 9 9
40 40 40 39 39 38 36 34 32 30 29 28 27 26 24 23 22 21 19 17 16 15 14 12 11 10 9 10 11 11 11 10 10 11 10 10 11 11 11 11 10 10
40 40 40 40 40 40 38 36 34 32 32 30 29 28 26 25 24 22 20 19 17 16 15 13 12 11 11 11 12 12 12 12 11 11 12 11 12 13 13 12 12 11
40 40 40 41 41 41 39 37 36 35 34 33 31 29 28 27 25 23 21 20 19 18 17 15 13 12 12 13 13 13 13 13 13 12 13 13 13 14 14 13 13 12
39 40 41 41 41 40 40 39 39 38 36 34 32 31 30 28 27 25 23 22 21 19 18 16 14 14 14 14 14 14 14 15 14 14 15 15 15 16 15 14 13 12
39 40 40 40 39 40 40 40 40 39 37 36 34 33 32 30 28 27 25 24 22 21 19 18 16 15 15 16 16 16 16 16 16 16 16 16 17 16 16 15 13 13
39 39 39 38 39 39 40 41 41 40 39 37 36 34 33 31 30 28 27 25 24 23 21 20 18 17 17 17 18 18 17 17 17 18 18 18 18 17 17 16 14 14
39 39 39 39 39 40 42 43 43 41 40 38 37 36 35 34 33 30 28 27 26 25 24 22 20 20 19 19 20 20 19 19 19 19 19 19 19 18 17 16 15 15
40 41 41 40 41 42 44 44 43 42 42 40 39 39 38 37 34 32 30 29 28 27 26 24 22 21 21 21 21 21 22 21 21 21 21 21 20 19 18 17 16 15
41 42 42 41 42 43 44 44 43 43 43 42 41 41 39 37 35 33 33 31 30 29 27 26 24 23 23 23 23 23 23 23 23 23 23 23 22 20 19 18 17 16
41 42 42 43 44 44 44 44 44 43 42 42 42 40 38 37 36 36 35 33 32 31 30 29 27 26 25 25 24 24 24 25 25 26 25 24 22 21 20 19 18 17
Wind_Direction
161 160 158 156 154 153 152 150 149 147 145 142 140 139 136 133 132 129 121 114 107 102 101 101 101 102 102 101 98 95 91 87 88 90 88 84 82 79 73 69 68 65
164 163 161 158 157 157 155 153 152 150 147 146 144 141 138 136 135 129 121 115 109 105 104 105 106 106 106 104 99 96 94 92 93 93 88 86 83 79 73 66 60 57
167 166 165 163 161 160 159 157 155 153 150 149 147 143 140 139 136 131 122 114 108 107 108 110 112 113 113 113 110 109 110 107 103 99 92 90 86 81 78 69 55 49
171 170 169 168 165 163 162 160 159 157 155 152 149 146 144 142 138 129 120 112 110 113 118 123 128 133 135 136 134 129 127 121 114 108 100 96 93 85 79 69 50 35
174 174 174 172 169 167 166 164 162 161 158 154 152 150 148 144 136 126 119 119 124 130 139 146 154 160 159 157 154 149 145 136 129 128 125 115 106 90 73 57 34 15
177 178 177 175 173 170 169 168 165 163 160 157 155 153 150 144 135 128 127 133 141 149 160 169 174 175 173 173 175 173 167 156 152 154 151 150 140 92 55 9 346 341
179 180 179 177 174 173 172 170 167 165 163 160 158 156 152 146 139 136 139 146 156 166 176 181 184 184 184 186 188 185 176 169 169 174 180 182 193 243 264 277 298 311
181 181 179 177 176 175 174 172 170 168 166 164 161 157 154 151 145 144 150 159 167 176 184 188 190 193 194 192 192 189 181 182 186 195 213 212 210 235 251 265 286 306
181 181 179 179 178 177 176 174 172 170 169 167 163 159 156 154 151 153 159 167 175 182 189 193 195 195 195 194 196 199 200 208 216 218 227 233 234 245 259 277 296 310
182 180 180 181 180 179 178 176 174 172 171 169 166 163 160 158 158 161 168 174 180 188 193 196 196 196 198 200 204 214 222 231 237 238 241 246 252 260 277 291 299 302
182 182 183 183 183 182 180 178 177 175 172 171 170 168 164 164 165 169 176 180 183 190 195 197 198 200 205 212 218 225 232 240 244 248 253 260 269 276 283 288 290 292
184 184 185 186 185 184 182 181 180 177 174 174 175 173 169 169 172 176 180 181 185 191 195 197 200 206 216 227 236 239 241 247 251 258 264 267 273 277 278 281 281 283
186 187 187 188 187 186 184 184 182 180 178 177 178 177 174 174 177 180 181 181 187 192 194 198 203 213 226 235 244 247 247 252 258 263 268 270 273 275 275 276 277 277
189 189 189 190 189 187 187 187 184 183 182 180 180 179 179 179 180 181 181 183 188 192 196 200 206 219 232 240 245 247 249 257 263 265 268 271 273 276 276 275 276 277
190 190 191 191 190 189 190 189 186 185 184 184 183 182 181 181 182 182 184 187 190 194 200 204 210 222 234 242 247 249 254 260 266 269 273 276 276 277 278 278 278 278
191 191 192 192 192 192 192 191 189 188 187 187 186 184 184 183 184 185 187 189 192 197 203 206 212 223 234 242 247 252 259 263 268 273 274 277 280 279 278 280 279 278
193 192 193 194 194 194 195 194 191 191 191 191 189 187 187 187 188 189 190 192 195 200 206 209 213 222 232 241 247 253 260 265 268 273 276 278 281 282 281 281 279 277
194 193 194 196 197 197 197 196 194 195 195 194 192 191 191 191 192 193 194 195 199 203 208 211 214 222 231 238 246 253 262 267 268 272 277 280 282 284 283 281 279 277
195 195 196 198 199 199 199 197 197 199 199 197 196 195 195 195 196 197 197 200 204 206 210 213 215 222 231 236 243 250 259 267 272 276 279 281 283 282 280 279 279 276
197 197 198 200 201 201 201 200 201 203 202 201 200 199 199 200 200 201 202 204 208 208 211 215 217 223 231 236 241 246 252 261 270 276 278 279 278 276 275 275 274 273
200 201 201 202 203 203 203 203 205 206 205 204 204 204 204 205 204 205 206 208 211 211 213 217 220 224 229 235 241 245 248 254 264 270 273 274 273 271 272 272 271 269
202 203 203 204 204 205 205 206 208 208 208 208 208 208 209 210 210 210 211 212 213 214 216 219 222 224 227 233 238 242 245 250 258 264 267 268 268 267 268 269 270 266
205 205 206 206 206 207 208 209 210 210 211 211 210 212 212 213 213 214 215 216 216 217 219 221 223 225 227 231 236 240 243 247 253 258 261 263 264 263 264 265 264 261
208 209 209 208 209 210 211 212 212 213 214 214 214 215 216 216 216 217 218 219 219 221 223 224 225 226 228 231 236 238 240 246 251 254 256 258 259 259 259 260 260 258
211 212 212 212 212 214 215 216 216 216 216 217 218 219 220 219 219 220 222 223 223 225 227 227 227 226 228 232 235 236 238 244 249 250 251 254 255 256 256 256 256 255
214 214 215 215 217 218 219 220 220 219 218 219 220 221 221 222 223 224 225 226 227 228 229 229 229 227 228 232 235 235 237 242 247 248 249 251 252 253 253 253 252 250